Honolulu, HI

1:34 PM HST on March 27, 2017 (GMT -1000)
Honolulu International

Weather History for PHNL - August, 2013

Change the Weather History Date:

Sunday, August 25, 2013

  Actual Average Record
Temperature  
Mean Temperature 82 °F 82 °F  
Max Temperature 88 °F 89 °F 93 °F (1987)
Min Temperature 76 °F 75 °F 70 °F (1965)
Degree Days  
Heating Degree Days 0 0  
Month to date heating degree days 0 0  
Since 1 June heating degree days 0 0  
Since 1 July heating degree days 0 0  
Cooling Degree Days 17 17  
Month to date cooling degree days 409 425  
Year to date cooling degree days 2761 2885  
Since 1 June cooling degree days 1301 1383  
Growing Degree Days 32 (Base 50)    
Moisture  
Dew Point 65 °F    
Average Humidity 56    
Maximum Humidity 69    
Minimum Humidity 43    
Precipitation  
Precipitation 0.00 in 0.01 in 0.92 in (2015)
Month to date precipitation 0.06 0.44  
Year to date precipitation 9.04 8.78  
Snow  
Snow 0.00 in - - ()
Month to date snowfall 0.0  
Since 1 June snowfall 0.0  
Since 1 July snowfall 0.0  
Snow Depth 0.00 in    
Sea Level Pressure  
Sea Level Pressure 30.04 in    
Wind  
Wind Speed 13 mph (ENE)    
Max Wind Speed 24 mph    
Max Gust Speed 31 mph    
Visibility 10 miles    
Events      
T = Trace of Precipitation, MM = Missing Value Source: NWS Daily Summary

Daily Weather History Graph

Daily Weather History Graph

Search for Another Location

Airport or City:

Trip Planner

Search our weather history database for the weather conditions in past years. The results will help you decide how hot, cold, wet, or windy it might be!

Date:

Astronomy

Aug. 25, 2013 Rise Set
Actual Time 6:13 AM HST 6:53 PM HST
Civil Twilight 5:50 AM HST 7:16 PM HST
Nautical Twilight 5:23 AM HST 7:42 PM HST
Astronomical Twilight 4:56 AM HST 8:09 PM HST
Moon 10:20 PM HST (8/25) 10:41 AM HST (8/25)
Length of Visible Light 13h 25m
Length of Day
12h 40m
Waning Gibbous, 74% of the Moon is Illuminated
Aug 25
Waning Gibbous
Aug 27
Last Quarter
Sep 5
New
Sep 12
First Quarter
Sep 19
Full

Hourly Weather History & Observations

Time (HST) Temp. Heat Index Dew Point Humidity Pressure Visibility Wind Dir Wind Speed Gust Speed Precip Events Conditions
12:53 AM 77.0 °F - 66.0 °F 69% 30.04 in 10.0 mi NE 6.9 mph - N/A   Partly Cloudy
1:53 AM 77.0 °F - 66.0 °F 69% 30.03 in 10.0 mi ENE 8.1 mph - N/A   Partly Cloudy
2:53 AM 77.0 °F - 66.0 °F 69% 30.01 in 10.0 mi ENE 12.7 mph - N/A   Scattered Clouds
3:53 AM 77.0 °F - 64.9 °F 66% 30.01 in 10.0 mi NE 5.8 mph - N/A   Partly Cloudy
4:53 AM 77.0 °F - 64.9 °F 66% 30.01 in 10.0 mi ENE 12.7 mph 20.7 mph N/A   Scattered Clouds
5:53 AM 77.0 °F - 64.9 °F 66% 30.02 in 10.0 mi ENE 6.9 mph - N/A   Partly Cloudy
6:53 AM 78.1 °F - 64.9 °F 64% 30.04 in 10.0 mi ENE 9.2 mph - N/A   Partly Cloudy
7:53 AM 80.1 °F 81.9 °F 64.9 °F 60% 30.05 in 10.0 mi NE 17.3 mph 24.2 mph N/A   Partly Cloudy
8:53 AM 82.0 °F 83.8 °F 64.9 °F 56% 30.06 in 10.0 mi NE 15.0 mph - N/A   Scattered Clouds
9:53 AM 84.9 °F 86.6 °F 64.9 °F 51% 30.06 in 10.0 mi ENE 18.4 mph 24.2 mph N/A   Scattered Clouds
10:53 AM 84.9 °F 86.1 °F 64.0 °F 49% 30.06 in 10.0 mi ENE 16.1 mph 27.6 mph N/A   Scattered Clouds
11:53 AM 87.1 °F 87.8 °F 63.0 °F 44% 30.04 in 10.0 mi ENE 19.6 mph 26.5 mph N/A   Scattered Clouds
12:53 PM 87.1 °F 87.8 °F 63.0 °F 44% 30.04 in 10.0 mi ENE 18.4 mph 28.8 mph N/A   Scattered Clouds
1:53 PM 88.0 °F 88.7 °F 63.0 °F 43% 30.02 in 10.0 mi NE 20.7 mph 27.6 mph N/A   Scattered Clouds
2:53 PM 86.0 °F 87.3 °F 64.0 °F 48% 30.01 in 10.0 mi ENE 17.3 mph 28.8 mph N/A   Scattered Clouds
3:53 PM 84.9 °F 87.1 °F 66.0 °F 53% 30.01 in 10.0 mi NE 17.3 mph 24.2 mph N/A   Scattered Clouds
4:53 PM 84.9 °F 86.1 °F 64.0 °F 49% 30.01 in 10.0 mi NE 17.3 mph 26.5 mph N/A   Scattered Clouds
5:53 PM 82.9 °F 84.4 °F 64.0 °F 53% 30.02 in 10.0 mi NE 12.7 mph 21.9 mph N/A   Scattered Clouds
6:53 PM 80.1 °F 81.7 °F 64.0 °F 58% 30.03 in 10.0 mi ENE 13.8 mph - N/A   Scattered Clouds
7:53 PM 79.0 °F - 66.0 °F 64% 30.05 in 10.0 mi ENE 16.1 mph 24.2 mph N/A   Partly Cloudy
8:53 PM 79.0 °F - 64.9 °F 62% 30.07 in 10.0 mi ENE 16.1 mph - N/A   Partly Cloudy
9:53 PM 79.0 °F - 64.9 °F 62% 30.09 in 10.0 mi NE 16.1 mph - N/A   Partly Cloudy
10:53 PM 78.1 °F - 66.0 °F 66% 30.08 in 10.0 mi ENE 13.8 mph 21.9 mph N/A   Partly Cloudy
11:53 PM 78.1 °F - 66.0 °F 66% 30.08 in 10.0 mi ENE 11.5 mph - N/A   Partly Cloudy